VHDAN YMEN-YWSL

Flight info

Callsign VHDAN
Flight time 0h 51m
Altitude 3500
Route DSN GMH NRW YNNG DRN YLTV FYN
Aircraft BN2P/L-VGD/A

Departure

Time 2026-04-17 09:35
Airport Melbourne Essendon Airport (YMEN)

Arrival

Time 2026-04-17 10:26
Airport West Sale Airport (YWSL)
Time Latitude Longitude Altitude Speed Heading
2026-04-17 09:25 -37.72693 144.89842 265 ft 0 kts 133°
2026-04-17 09:31 -37.72697 144.89848 265 ft 0 kts 125°
2026-04-17 09:31 -37.72702 144.89856 265 ft 6 kts 140°
2026-04-17 09:31 -37.72780 144.89984 265 ft 13 kts 72°
2026-04-17 09:32 -37.72695 144.89984 265 ft 23 kts 359°
2026-04-17 09:32 -37.72538 144.89976 268 ft 17 kts 358°
2026-04-17 09:32 -37.72410 144.89970 268 ft 21 kts 355°
2026-04-17 09:32 -37.72362 144.89992 272 ft 0 kts 78°
2026-04-17 09:33 -37.72362 144.89991 271 ft 0 kts 78°
2026-04-17 09:33 -37.72361 144.90065 282 ft 18 kts 113°
2026-04-17 09:33 -37.72531 144.90101 276 ft 53 kts 179°
2026-04-17 09:34 -37.73105 144.90120 266 ft 104 kts 180°
2026-04-17 09:34 -37.73861 144.90104 423 ft 109 kts 184°
2026-04-17 09:34 -37.74580 144.90198 638 ft 103 kts 159°
2026-04-17 09:34 -37.75072 144.90827 744 ft 109 kts 115°
2026-04-17 09:35 -37.75130 144.91782 837 ft 108 kts 85°
2026-04-17 09:35 -37.75102 144.92693 1038 ft 99 kts 91°
2026-04-17 09:35 -37.75108 144.93543 1218 ft 95 kts 91°
2026-04-17 09:35 -37.75124 144.94382 1372 ft 96 kts 92°
2026-04-17 09:36 -37.75154 144.95237 1486 ft 100 kts 93°
2026-04-17 09:36 -37.75185 144.96164 1501 ft 111 kts 93°
2026-04-17 09:36 -37.75220 144.97173 1499 ft 118 kts 93°
2026-04-17 09:36 -37.75257 144.98225 1498 ft 121 kts 93°
2026-04-17 09:37 -37.75295 144.99279 1500 ft 122 kts 94°
2026-04-17 09:37 -37.75345 145.00359 1499 ft 123 kts 94°
2026-04-17 09:37 -37.75395 145.01442 1501 ft 123 kts 94°
2026-04-17 09:37 -37.75446 145.02531 1497 ft 126 kts 94°
2026-04-17 09:38 -37.75500 145.03687 1508 ft 137 kts 94°
2026-04-17 09:38 -37.75564 145.04928 1488 ft 146 kts 95°
2026-04-17 09:38 -37.75705 145.06234 1340 ft 155 kts 108°
2026-04-17 09:38 -37.76177 145.07426 1428 ft 145 kts 125°
2026-04-17 09:39 -37.76645 145.08524 1561 ft 141 kts 124°
2026-04-17 09:39 -37.77121 145.09631 1561 ft 146 kts 125°
2026-04-17 09:39 -37.77607 145.10771 1549 ft 148 kts 124°
2026-04-17 09:39 -37.78085 145.11920 1557 ft 148 kts 124°
2026-04-17 09:40 -37.78530 145.13089 1558 ft 148 kts 118°
2026-04-17 09:40 -37.78907 145.14294 1570 ft 148 kts 117°
2026-04-17 09:40 -37.79285 145.15509 1566 ft 149 kts 117°
2026-04-17 09:40 -37.79673 145.16718 1566 ft 148 kts 118°
2026-04-17 09:41 -37.80058 145.17899 1700 ft 141 kts 119°
2026-04-17 09:41 -37.80414 145.19019 1908 ft 135 kts 119°
2026-04-17 09:41 -37.80760 145.20109 2079 ft 131 kts 120°
2026-04-17 09:41 -37.81235 145.21018 2165 ft 123 kts 155°
2026-04-17 09:42 -37.82065 145.21090 2245 ft 119 kts 189°
2026-04-17 09:42 -37.82858 145.21022 2511 ft 111 kts 185°
2026-04-17 09:42 -37.83642 145.20985 2590 ft 118 kts 185°
2026-04-17 09:42 -37.84497 145.20929 2561 ft 127 kts 185°
2026-04-17 09:43 -37.85395 145.20881 2556 ft 130 kts 185°
2026-04-17 09:43 -37.86300 145.20827 2567 ft 132 kts 185°
2026-04-17 09:43 -37.87229 145.20768 2553 ft 134 kts 186°
2026-04-17 09:43 -37.88153 145.20717 2556 ft 133 kts 186°
2026-04-17 09:44 -37.89082 145.20670 2564 ft 134 kts 185°
2026-04-17 09:44 -37.90011 145.20619 2556 ft 133 kts 185°
2026-04-17 09:44 -37.90935 145.20578 2559 ft 132 kts 185°
2026-04-17 09:44 -37.91852 145.20538 2558 ft 132 kts 186°
2026-04-17 09:45 -37.92768 145.20500 2558 ft 132 kts 184°
2026-04-17 09:45 -37.93683 145.20481 2557 ft 132 kts 184°
2026-04-17 09:45 -37.94604 145.20548 2545 ft 135 kts 172°
2026-04-17 09:45 -37.95476 145.20977 2555 ft 136 kts 162°
2026-04-17 09:46 -37.96348 145.21438 2565 ft 136 kts 164°
2026-04-17 09:46 -37.97241 145.21903 2558 ft 137 kts 163°
2026-04-17 09:46 -37.98124 145.22372 2559 ft 138 kts 162°
2026-04-17 09:46 -37.99009 145.22846 2556 ft 137 kts 162°
2026-04-17 09:47 -37.99888 145.23329 2557 ft 138 kts 162°
2026-04-17 09:47 -38.00674 145.24025 2492 ft 148 kts 129°
2026-04-17 09:47 -38.00929 145.25311 2546 ft 149 kts 104°
2026-04-17 09:47 -38.01096 145.26575 2599 ft 147 kts 108°
2026-04-17 09:48 -38.01297 145.27855 2573 ft 151 kts 108°
2026-04-17 09:48 -38.01509 145.29178 2557 ft 151 kts 109°
2026-04-17 09:48 -38.01739 145.30478 2556 ft 151 kts 109°
2026-04-17 09:48 -38.01966 145.31762 2556 ft 152 kts 109°
2026-04-17 09:49 -38.02195 145.33071 2556 ft 152 kts 109°
2026-04-17 09:49 -38.02424 145.34383 2549 ft 153 kts 109°
2026-04-17 09:49 -38.02661 145.35690 2554 ft 152 kts 110°
2026-04-17 09:49 -38.02915 145.36989 2554 ft 151 kts 110°
2026-04-17 09:50 -38.03167 145.38275 2554 ft 151 kts 110°
2026-04-17 09:50 -38.03418 145.39569 2553 ft 151 kts 110°
2026-04-17 09:50 -38.03670 145.40859 2553 ft 151 kts 110°
2026-04-17 09:50 -38.03925 145.42152 2553 ft 152 kts 110°
2026-04-17 09:51 -38.04181 145.43453 2551 ft 152 kts 110°
2026-04-17 09:51 -38.04435 145.44759 2555 ft 152 kts 111°
2026-04-17 09:51 -38.04686 145.46068 2556 ft 153 kts 110°
2026-04-17 09:51 -38.04940 145.47377 2555 ft 153 kts 110°
2026-04-17 09:52 -38.05192 145.48684 2556 ft 153 kts 110°
2026-04-17 09:52 -38.05448 145.49997 2556 ft 154 kts 111°
2026-04-17 09:52 -38.05721 145.51312 2558 ft 154 kts 111°
2026-04-17 09:52 -38.06000 145.52627 2554 ft 154 kts 111°
2026-04-17 09:53 -38.06276 145.53938 2557 ft 154 kts 111°
2026-04-17 09:53 -38.06556 145.55249 2556 ft 155 kts 111°
2026-04-17 09:53 -38.06838 145.56562 2555 ft 154 kts 111°
2026-04-17 09:53 -38.07118 145.57875 2553 ft 154 kts 111°
2026-04-17 09:54 -38.07395 145.59181 2554 ft 153 kts 111°
2026-04-17 09:54 -38.07672 145.60482 2555 ft 152 kts 112°
2026-04-17 09:54 -38.07949 145.61783 2552 ft 153 kts 111°
2026-04-17 09:54 -38.08134 145.62649 2558 ft 154 kts 111°
2026-04-17 09:55 -38.08513 145.64416 2554 ft 155 kts 111°
2026-04-17 09:55 -38.08798 145.65741 2555 ft 156 kts 112°
2026-04-17 09:55 -38.09083 145.67070 2556 ft 156 kts 111°
2026-04-17 09:55 -38.09276 145.67950 2556 ft 157 kts 112°
2026-04-17 09:56 -38.09583 145.69282 2552 ft 158 kts 112°
2026-04-17 09:56 -38.09894 145.70616 2545 ft 157 kts 112°
2026-04-17 09:56 -38.10200 145.71937 2548 ft 155 kts 112°
2026-04-17 09:56 -38.10601 145.73676 2554 ft 155 kts 112°
2026-04-17 09:57 -38.10805 145.74560 2552 ft 155 kts 112°
2026-04-17 09:57 -38.11110 145.75868 2551 ft 154 kts 112°
2026-04-17 09:57 -38.11413 145.77171 2553 ft 154 kts 112°
2026-04-17 09:57 -38.11716 145.78481 2549 ft 155 kts 112°
2026-04-17 09:58 -38.12020 145.79788 2554 ft 154 kts 113°
2026-04-17 09:58 -38.12339 145.81096 2547 ft 155 kts 114°
2026-04-17 09:58 -38.12657 145.82404 2548 ft 154 kts 114°
2026-04-17 09:58 -38.12975 145.83707 2555 ft 156 kts 114°
2026-04-17 09:59 -38.13312 145.85021 2549 ft 158 kts 112°
2026-04-17 09:59 -38.13506 145.86410 2543 ft 161 kts 103°
2026-04-17 09:59 -38.13654 145.87815 2558 ft 160 kts 104°
2026-04-17 09:59 -38.13803 145.89218 2554 ft 160 kts 103°
2026-04-17 10:00 -38.13952 145.90629 2553 ft 162 kts 104°
2026-04-17 10:00 -38.14088 145.91881 2550 ft 161 kts 104°
2026-04-17 10:00 -38.14259 145.93357 2547 ft 162 kts 104°
2026-04-17 10:00 -38.14424 145.94770 2555 ft 162 kts 103°
2026-04-17 10:01 -38.14579 145.96177 2552 ft 160 kts 104°
2026-04-17 10:01 -38.14732 145.97578 2552 ft 160 kts 104°
2026-04-17 10:01 -38.14894 145.98952 2551 ft 159 kts 105°
2026-04-17 10:01 -38.15058 146.00341 2542 ft 157 kts 104°
2026-04-17 10:02 -38.15220 146.01714 2544 ft 157 kts 104°
2026-04-17 10:02 -38.15379 146.03086 2545 ft 157 kts 105°
2026-04-17 10:02 -38.15541 146.04449 2552 ft 156 kts 105°
2026-04-17 10:02 -38.15705 146.05816 2548 ft 157 kts 104°
2026-04-17 10:03 -38.15869 146.07185 2542 ft 156 kts 105°
2026-04-17 10:03 -38.16030 146.08543 2544 ft 155 kts 105°
2026-04-17 10:03 -38.16192 146.09896 2550 ft 155 kts 105°
2026-04-17 10:03 -38.16353 146.11258 2546 ft 156 kts 105°
2026-04-17 10:04 -38.16505 146.12617 2546 ft 155 kts 104°
2026-04-17 10:04 -38.16667 146.13971 2550 ft 155 kts 107°
2026-04-17 10:04 -38.16886 146.15310 2537 ft 155 kts 110°
2026-04-17 10:04 -38.17101 146.16640 2548 ft 154 kts 109°
2026-04-17 10:05 -38.17313 146.17976 2550 ft 155 kts 108°
2026-04-17 10:05 -38.17517 146.19325 2546 ft 156 kts 108°
2026-04-17 10:05 -38.17717 146.20673 2560 ft 156 kts 108°
2026-04-17 10:05 -38.17919 146.22028 2545 ft 156 kts 108°
2026-04-17 10:06 -38.18122 146.23381 2546 ft 156 kts 107°
2026-04-17 10:06 -38.18315 146.24744 2546 ft 158 kts 107°
2026-04-17 10:06 -38.18511 146.26123 2547 ft 159 kts 107°
2026-04-17 10:06 -38.18712 146.27511 2544 ft 160 kts 107°
2026-04-17 10:07 -38.18903 146.28905 2543 ft 160 kts 105°
2026-04-17 10:07 -38.19089 146.30301 2541 ft 160 kts 106°
2026-04-17 10:07 -38.19278 146.31695 2538 ft 160 kts 107°
2026-04-17 10:07 -38.19472 146.33082 2542 ft 159 kts 107°
2026-04-17 10:08 -38.19660 146.34466 2540 ft 159 kts 107°
2026-04-17 10:08 -38.19849 146.35849 2544 ft 159 kts 107°
2026-04-17 10:08 -38.20041 146.37243 2541 ft 160 kts 107°
2026-04-17 10:08 -38.20228 146.38638 2531 ft 160 kts 107°
2026-04-17 10:09 -38.20407 146.40032 2536 ft 160 kts 106°
2026-04-17 10:09 -38.20592 146.41407 2540 ft 156 kts 106°
2026-04-17 10:09 -38.20771 146.42729 2522 ft 147 kts 107°
2026-04-17 10:09 -38.20947 146.43979 2592 ft 140 kts 108°
2026-04-17 10:10 -38.21129 146.45217 2536 ft 150 kts 108°
2026-04-17 10:10 -38.21341 146.46499 2193 ft 148 kts 109°
2026-04-17 10:10 -38.21553 146.47760 1865 ft 144 kts 110°
2026-04-17 10:11 -38.21119 146.49954 1379 ft 117 kts 42°
2026-04-17 10:11 -38.20602 146.50656 1455 ft 105 kts 43°
2026-04-17 10:11 -38.19960 146.50892 1301 ft 103 kts 332°
2026-04-17 10:11 -38.19471 146.50329 1218 ft 86 kts 300°
2026-04-17 10:12 -38.19336 146.49643 949 ft 86 kts 251°
2026-04-17 10:12 -38.19682 146.49053 740 ft 77 kts 233°
2026-04-17 10:12 -38.20013 146.48501 536 ft 81 kts 236°
2026-04-17 10:12 -38.20395 146.47965 347 ft 85 kts 229°
2026-04-17 10:13 -38.20828 146.47430 231 ft 81 kts 230°
2026-04-17 10:13 -38.21145 146.46997 228 ft 66 kts 229°
2026-04-17 10:13 -38.21504 146.46541 400 ft 77 kts 225°
2026-04-17 10:13 -38.21930 146.46124 611 ft 79 kts 204°
2026-04-17 10:14 -38.22487 146.46272 856 ft 88 kts 152°
2026-04-17 10:14 -38.22837 146.46967 1152 ft 101 kts 103°
2026-04-17 10:14 -38.22724 146.47954 1304 ft 124 kts 76°
2026-04-17 10:14 -38.22485 146.49024 1407 ft 132 kts 74°
2026-04-17 10:15 -38.22228 146.50151 1608 ft 134 kts 73°
2026-04-17 10:15 -38.21883 146.51297 1650 ft 143 kts 60°
2026-04-17 10:15 -38.21490 146.52375 1538 ft 122 kts 75°
2026-04-17 10:15 -38.21289 146.53349 1628 ft 110 kts 77°
2026-04-17 10:16 -38.21076 146.54292 1767 ft 113 kts 78°
2026-04-17 10:16 -38.20857 146.55298 1932 ft 125 kts 77°
2026-04-17 10:16 -38.20627 146.56433 2055 ft 140 kts 79°
2026-04-17 10:16 -38.20411 146.57670 2178 ft 147 kts 83°
2026-04-17 10:17 -38.20226 146.58957 2320 ft 150 kts 84°
2026-04-17 10:17 -38.20042 146.60273 2460 ft 152 kts 85°
2026-04-17 10:17 -38.19865 146.61627 2533 ft 160 kts 84°
2026-04-17 10:17 -38.19686 146.63061 2525 ft 168 kts 85°
2026-04-17 10:18 -38.19517 146.64545 2532 ft 171 kts 86°
2026-04-17 10:18 -38.19373 146.66049 2529 ft 172 kts 88°
2026-04-17 10:18 -38.19247 146.67574 2519 ft 175 kts 82°
2026-04-17 10:18 -38.18835 146.69052 2522 ft 178 kts 69°
2026-04-17 10:19 -38.18368 146.70521 2516 ft 180 kts 70°
2026-04-17 10:19 -38.17921 146.71990 2509 ft 177 kts 70°
2026-04-17 10:19 -38.17477 146.73443 2513 ft 176 kts 71°
2026-04-17 10:19 -38.17030 146.74908 2513 ft 178 kts 70°
2026-04-17 10:20 -38.16595 146.76386 2500 ft 179 kts 71°
2026-04-17 10:20 -38.16160 146.77872 2502 ft 180 kts 71°
2026-04-17 10:20 -38.15717 146.79361 2506 ft 181 kts 70°
2026-04-17 10:20 -38.15278 146.80853 2503 ft 180 kts 70°
2026-04-17 10:21 -38.14844 146.82337 2509 ft 179 kts 72°
2026-04-17 10:21 -38.14428 146.83798 2532 ft 174 kts 70°
2026-04-17 10:21 -38.13996 146.85238 2612 ft 173 kts 71°
2026-04-17 10:21 -38.13579 146.86683 2608 ft 177 kts 71°
2026-04-17 10:22 -38.13168 146.88136 2594 ft 171 kts 71°
2026-04-17 10:22 -38.12792 146.89529 2604 ft 165 kts 73°
2026-04-17 10:22 -38.12413 146.90887 2600 ft 161 kts 71°
2026-04-17 10:22 -38.12042 146.92198 2597 ft 154 kts 72°
2026-04-17 10:23 -38.11697 146.93489 2430 ft 156 kts 72°
2026-04-17 10:23 -38.11365 146.94792 2100 ft 152 kts 74°
2026-04-17 10:23 -38.11073 146.96040 1777 ft 143 kts 77°
2026-04-17 10:23 -38.10860 146.97247 1460 ft 135 kts 88°
2026-04-17 10:24 -38.10958 146.98329 1373 ft 112 kts 108°
2026-04-17 10:24 -38.11091 146.99241 1421 ft 104 kts 106°
2026-04-17 10:24 -38.10967 147.00175 1324 ft 122 kts 51°
2026-04-17 10:24 -38.10250 147.00529 977 ft 107 kts 346°
2026-04-17 10:25 -38.09754 147.00055 600 ft 82 kts 291°
2026-04-17 10:25 -38.09584 146.99462 499 ft 62 kts 290°
2026-04-17 10:25 -38.09447 146.98958 384 ft 61 kts 285°
2026-04-17 10:25 -38.09352 146.98444 265 ft 58 kts 282°
2026-04-17 10:26 -38.09271 146.97948 175 ft 58 kts 278°
2026-04-17 10:26 -38.09205 146.97449 88 ft 53 kts 281°
2026-04-17 10:26 -38.09169 146.97193 76 ft 15 kts 279°
2026-04-17 10:26 -38.09152 146.97030 78 ft 22 kts 279°
2026-04-17 10:27 -38.09129 146.96877 76 ft 13 kts 284°
2026-04-17 10:27 -38.09139 146.96786 77 ft 10 kts 207°
2026-04-17 10:27 -38.09200 146.96778 83 ft 6 kts 159°
2026-04-17 10:27 -38.09222 146.96836 79 ft 12 kts 101°
2026-04-17 10:28 -38.09238 146.96954 75 ft 15 kts 101°
2026-04-17 10:28 -38.09262 146.97122 76 ft 15 kts 102°
2026-04-17 10:28 -38.09296 146.97194 77 ft 8 kts 149°
2026-04-17 10:28 -38.09325 146.97242 75 ft 0 kts 103°